Location: Zagreb
(45.8000°N, 16.0000°E)
Time: 02:25:32
(UTC+02:00)

Transit 2A Rocket - Pass Details

Date: 26 January 2022
Orbit: 592 x 909 km, 66.7° (Epoch: 26 May)

Event Time Altitude Azimuth Distance (km) Brightness Sun altitude
Rises 16:53:48 0° 160° (SSE) 3,465 8.5 -1.0°
Reaches altitude 10° 16:57:09 10° 141° (SE) 2,564 7.6 -1.5°
Maximum altitude 17:00:48 17° 103° (ESE) 2,138 6.9 -2.1°
Drops below altitude 10° 17:04:29 10° 66° (ENE) 2,600 7.1 -2.7°
Enters shadow 17:07:07 - 50° (NE) 3,300 7.6 -3.1°
Sets 17:07:54 0° 47° (NE) 3,537 - -3.2°
